Location: Ocean City
(38.3360°N, 75.0850°W)
Time: 06:51:00
(UTC-04:00)

OTV 5 (USA 277) - Visible Passes

Search period start: 23 October 2019 00:00
Search period end: 02 November 2019 00:00
Orbit: 310 x 324 km, 54.5° (Epoch: 17 October)

Date Brightness Start Highest point End Pass type
(mag) Time Alt. Az. Time Alt. Az. Time Alt. Az.
26 Oct ? 20:12:44 10° SW 20:12:58 12° SW 20:12:58 12° SW visible
27 Oct ? 18:53:49 10° S 18:55:52 19° SE 18:56:48 16° E visible
28 Oct ? 19:07:35 10° SW 19:10:16 64° SE 19:11:24 30° ENE visible
29 Oct ? 19:22:16 10° WSW 19:24:49 37° NW 19:25:53 25° N visible
30 Oct ? 19:37:43 10° WNW 19:39:33 16° NNW 19:40:14 15° NNW visible
01 Nov ? 18:31:59 10° W 18:34:16 23° NW 18:36:34 10° NNE visible
